{"data":{"norad_id":60422,"intl_designator":"2024-143A","name":"ASBM-1","alt_names":[],"object_type":"PAYLOAD","status":"ACTIVE","operator":null,"country":"NOR","launch_date":"2024-08-12","launch_site_code":"AFWTR","launch_vehicle":null,"mission":null,"orbit_class":"UNKNOWN","rcs_meters":null,"size_class":null,"mass_kg":null,"dimensions":null,"purposes":[],"wikipedia_slug":null,"has_3d_model":false,"image_url":null,"decayed_at":null,"tle_current":{"epoch":"2026-09-21T05:22:52.896576Z","epoch_age_seconds":223626,"freshness":"STALE","line1":"1 60422U 24143A   26264.22422334 -.00000016  00000+0  00000+0 0  9996","line2":"2 60422  62.9327  41.6965 5644561 269.4461  29.3625  1.50427306 13064","mean_motion":1.50427306,"eccentricity":0.5644561,"inclination_deg":62.9327,"raan_deg":41.6965,"arg_perigee_deg":269.4461,"mean_anomaly_deg":29.3625,"bstar":0,"rev_number":1306,"period_min":957.27300999461,"perigee_km":7635.4503546281,"apogee_km":43958.102859704,"semimajor_km":32174.913607166,"source":"CELESTRAK","updated_at":"2026-09-23T09:00:20.608585Z"}}}